Date,TemperatureHighF,TemperatureAvgF,TemperatureLowF,DewpointHighF,DewpointAvgF,DewpointLowF,HumidityHigh,HumidityAvg,HumidityLow,PressureMaxIn,PressureMinIn,WindSpeedMaxMPH,WindSpeedAvgMPH,GustSpeedMaxMPH,PrecipitationSumIn
2013-1-1,47.3,42.9,35.3,45.6,39.5,33.2,96,88,74,30.08,29.58,12,5,21,0.04
2013-1-2,51.3,49.9,46.7,50.5,49.1,45.6,98,97,96,30.30,30.05,18,9,31,0.06
2013-1-3,50.6,50.0,49.4,50.0,49.3,48.3,99,97,96,30.52,30.31,16,8,23,0.09
2013-1-4,50.6,48.9,47.8,49.0,47.5,46.1,97,95,92,30.53,30.38,10,6,18,0.02
2013-1-5,51.9,48.7,44.7,50.4,47.0,43.6,97,94,91,30.43,30.27,15,6,24,0.17
2013-1-6,50.9,49.4,44.4,50.0,48.5,43.3,98,97,96,30.41,30.13,12,7,21,0.36
2013-1-7,52.9,51.1,49.2,52.3,50.3,48.4,98,97,97,30.13,29.92,12,7,20,0.60
2013-1-8,52.9,46.0,36.9,52.1,43.9,35.4,97,93,78,30.28,29.91,17,5,30,0.02
2013-1-9,44.0,37.9,34.3,42.4,36.8,33.1,98,96,91,30.25,30.02,8,2,13,0.02
2013-1-10,48.2,40.8,34.3,45.0,38.0,33.2,98,90,79,30.03,29.85,17,5,30,0.03
2013-1-11,49.2,42.3,34.9,46.9,40.6,32.8,97,94,90,30.03,29.71,10,5,17,0.05
2013-1-12,44.3,41.3,36.8,42.4,39.0,34.0,97,91,83,30.11,29.70,9,3,16,0.00
2013-1-13,47.9,39.7,29.9,44.4,37.4,28.4,97,92,83,30.20,30.11,10,4,16,0.02
2013-1-14,46.1,42.8,37.9,43.7,39.9,34.2,94,89,81,30.14,30.00,13,5,23,0.06
2013-1-15,43.0,39.2,35.8,40.3,36.5,32.6,96,90,84,30.02,29.69,6,3,12,0.16
2013-1-16,45.7,41.5,37.6,44.9,40.6,36.6,97,97,96,29.86,29.69,8,2,13,0.05
2013-1-17,47.7,44.4,41.4,46.6,43.0,40.3,97,95,91,29.86,29.30,16,5,28,0.54
2013-1-18,48.2,43.6,39.2,46.1,42.2,37.8,97,95,88,29.33,29.21,12,4,20,0.39
2013-1-19,41.6,37.1,31.9,40.0,35.5,30.4,100,94,92,29.59,29.27,5,2,9,0.02
2013-1-20,37.4,33.5,29.8,32.7,30.9,28.5,97,90,78,29.57,29.35,9,3,17,0.00
2013-1-21,40.6,34.4,27.1,35.7,31.9,25.6,96,91,81,29.41,29.35,5,1,10,0.00
2013-1-22,38.5,31.5,25.0,37.7,30.4,23.8,98,96,95,29.72,29.38,6,1,10,0.04
2013-1-23,39.4,35.4,32.4,36.9,33.6,31.1,96,93,89,29.87,29.65,9,2,16,0.01
2013-1-24,42.8,34.5,26.2,41.2,33.2,24.9,97,95,92,29.95,29.82,12,4,20,0.02
2013-1-25,48.6,44.4,40.7,47.8,42.3,36.2,99,92,79,29.82,29.37,15,8,26,0.38
2013-1-26,52.2,44.3,38.1,51.1,42.7,35.2,97,94,84,29.71,29.00,23,9,35,0.33
2013-1-27,44.5,40.4,36.4,43.7,36.9,33.0,97,87,78,29.45,28.97,25,13,43,0.30
2013-1-28,51.1,45.7,39.8,47.5,41.7,36.2,97,86,77,29.51,29.03,30,16,46,0.24
2013-1-29,53.0,46.9,42.0,51.8,44.2,40.1,97,90,81,29.42,29.09,22,10,35,0.21
2013-1-30,48.0,44.5,41.7,43.4,40.7,38.1,94,86,77,29.80,29.33,29,13,46,0.18
2013-1-31,50.0,45.3,42.5,44.4,39.8,37.2,88,81,75,29.75,29.46,32,15,51,0.07
2013-2-1,47.4,43.1,39.1,40.9,38.6,35.6,91,84,73,30.01,29.56,16,7,27,0.04
2013-2-2,49.0,41.7,34.8,44.2,37.8,32.7,96,86,66,30.31,30.02,17,3,26,0.04
2013-2-3,50.9,49.1,45.5,49.1,47.7,42.8,97,95,86,30.13,29.91,21,12,33,0.04
2013-2-4,46.6,42.4,35.0,42.8,37.2,30.9,89,82,69,30.02,29.75,32,14,52,0.12
2013-2-5,47.0,39.7,33.1,42.6,35.6,30.3,92,85,74,29.95,29.60,18,11,32,0.21
2013-2-6,45.4,40.1,36.1,39.6,35.4,32.2,90,83,76,30.36,29.95,15,6,28,0.02
2013-2-7,49.9,43.0,35.7,44.6,38.0,32.3,96,83,66,30.35,30.12,17,8,30,0.05
2013-2-8,50.9,45.2,42.2,43.8,41.0,36.1,93,86,74,30.37,30.25,13,5,20,0.01
2013-2-9,48.5,46.4,45.1,47.4,45.0,43.4,97,95,91,30.25,29.62,10,5,17,0.21
2013-2-10,46.8,43.3,39.9,46.0,40.8,38.2,97,91,82,29.61,29.30,12,6,20,0.07
2013-2-11,43.7,40.4,37.3,41.1,39.1,36.0,97,95,90,29.81,29.34,9,2,16,0.23
2013-2-12,44.7,40.5,37.7,43.6,39.3,36.4,97,95,93,29.96,29.81,9,3,17,0.05
2013-2-13,50.1,47.2,40.7,49.3,46.3,39.7,98,96,93,29.88,29.65,21,10,32,0.25
2013-2-14,50.5,44.8,39.7,44.8,41.7,37.8,94,89,75,30.08,29.72,14,7,24,0.04
2013-2-15,48.8,44.4,39.3,44.8,41.7,37.2,96,90,77,30.12,30.04,9,4,13,0.03
2013-2-16,53.8,48.5,45.7,49.8,46.0,42.7,96,91,83,30.06,29.89,15,8,26,0.00
2013-2-17,50.8,47.0,42.0,44.9,41.9,36.9,88,82,69,29.89,29.83,15,8,24,0.00
2013-2-18,50.9,43.5,37.4,42.0,38.7,34.7,94,83,65,30.01,29.86,13,4,20,0.00
2013-2-19,52.3,44.6,35.8,44.4,40.8,33.7,93,87,68,30.04,29.97,8,2,12,0.00
2013-2-20,50.2,39.7,31.4,43.9,36.0,29.5,96,87,74,30.03,29.99,13,4,20,0.01
2013-2-21,42.7,39.2,34.7,38.0,33.3,27.7,86,80,73,30.10,30.01,14,7,25,0.00
2013-2-22,38.6,34.8,32.9,28.9,27.2,26.1,79,74,66,30.29,30.10,13,4,21,0.00
2013-2-23,37.7,33.6,26.3,31.6,28.4,23.7,96,81,73,30.37,30.28,3,1,7,0.00
2013-2-24,45.4,33.1,25.2,35.0,27.6,22.9,94,82,56,30.48,30.35,7,1,12,0.00
2013-2-25,47.9,32.2,23.3,36.1,27.4,21.3,96,84,57,30.59,30.48,7,1,12,0.02
2013-2-26,44.2,36.4,27.1,38.7,33.5,25.2,95,89,78,30.67,30.58,5,1,9,0.00
2013-2-27,42.0,40.3,38.3,38.3,37.4,36.4,93,89,85,30.69,30.64,7,1,12,0.00
2013-2-28,43.1,38.8,34.6,40.4,36.7,32.8,94,92,88,30.64,30.53,8,4,13,0.00
2013-3-1,50.9,42.3,34.5,44.5,39.3,31.3,96,89,73,30.54,30.48,5,1,7,0.00
2013-3-2,47.4,37.9,30.3,38.1,34.2,28.8,97,87,66,30.50,30.31,5,1,8,0.00
2013-3-3,47.5,40.1,35.0,39.0,35.6,31.7,94,84,67,30.31,30.03,7,2,12,0.00
2013-3-4,42.7,39.7,36.8,39.4,36.6,32.9,92,89,83,30.03,29.71,7,1,12,0.00
2013-3-5,48.2,41.4,33.4,42.6,38.3,31.8,95,89,76,29.70,29.51,6,2,13,0.17
2013-3-6,48.3,44.6,40.8,46.6,43.2,39.2,96,95,93,29.51,29.38,6,2,12,0.10
2013-3-7,49.3,46.9,45.3,47.5,45.6,44.2,96,95,93,29.38,29.20,8,3,18,0.05
2013-3-8,54.9,49.3,45.5,52.4,47.4,43.3,99,93,85,29.41,29.16,9,4,16,0.08
2013-3-9,56.9,48.1,41.5,49.2,44.7,38.5,94,88,67,29.65,29.37,14,6,23,0.00
2013-3-10,41.5,38.7,32.9,38.5,34.3,25.5,89,84,74,29.98,29.65,16,9,26,0.00
2013-3-11,38.3,32.4,28.6,25.4,22.2,17.8,79,66,47,30.17,29.98,14,10,26,0.00
2013-3-12,44.5,35.8,24.9,35.9,27.7,19.4,91,73,52,30.19,30.07,9,4,14,0.00
2013-3-13,49.7,41.5,36.0,41.2,36.4,33.1,92,82,67,30.15,30.03,10,4,20,0.01
2013-3-14,49.8,41.5,34.4,42.8,37.3,31.7,93,85,68,30.15,29.66,15,8,26,0.13
2013-3-15,46.4,40.6,33.8,42.5,37.6,32.1,95,89,70,29.65,29.33,18,6,29,0.24
2013-3-16,46.8,36.7,29.5,40.8,33.1,28.1,97,87,60,29.40,29.29,8,3,15,0.00
2013-3-17,45.2,39.8,35.4,40.8,36.3,31.6,94,88,77,29.37,29.18,16,6,26,0.06
2013-3-18,49.1,40.2,33.4,40.9,35.7,32.1,96,85,62,29.50,29.22,7,3,14,0.01
2013-3-19,39.4,36.8,30.6,34.8,32.4,28.2,91,84,79,29.58,29.50,9,5,16,0.01
2013-3-20,48.7,38.7,29.5,37.5,33.1,27.5,95,81,60,29.82,29.58,7,1,12,0.00
2013-3-21,42.5,39.0,33.4,40.5,36.4,30.2,95,90,82,29.80,29.34,12,6,31,0.31
2013-3-22,48.2,45.0,41.9,47.0,43.7,40.6,96,95,92,29.55,29.27,15,6,25,0.31
2013-3-23,44.6,41.6,38.3,42.8,39.0,35.0,95,90,83,29.86,29.55,9,6,21,0.00
2013-3-24,38.3,36.7,35.5,35.0,32.3,30.5,92,84,77,30.03,29.85,12,7,21,0.00
2013-3-25,41.2,36.8,32.4,31.0,29.0,27.0,85,74,60,30.11,30.03,12,7,23,0.00
2013-3-26,40.1,34.8,32.0,32.3,29.7,27.8,92,81,68,30.12,30.04,10,5,20,0.00
2013-3-27,42.1,35.3,30.3,33.3,29.9,26.6,92,81,65,30.06,30.01,10,4,18,0.00
2013-3-28,42.6,34.8,26.7,32.9,27.4,24.4,94,76,54,30.03,29.84,13,4,21,0.01
2013-3-29,45.2,36.8,29.9,29.9,27.4,25.4,83,69,51,29.85,29.77,13,4,22,0.00
2013-3-30,46.3,36.7,26.5,29.5,27.3,22.8,90,70,49,29.92,29.85,12,4,20,0.00
2013-3-31,42.4,38.0,34.1,36.2,32.2,27.3,86,80,69,29.86,29.73,13,5,21,0.01
2013-4-1,45.6,38.5,34.1,32.1,29.5,27.6,85,70,54,29.90,29.74,16,6,28,0.00
2013-4-2,50.1,41.5,33.5,32.6,28.6,20.5,80,62,33,30.15,29.90,10,5,20,0.00
2013-4-3,50.5,38.3,28.9,35.4,28.6,22.7,91,71,43,30.25,30.15,9,3,17,0.00
2013-4-4,47.8,38.5,30.5,32.5,27.6,21.8,84,66,47,30.26,30.20,10,4,20,0.00
2013-4-5,51.6,41.2,31.9,36.0,31.6,27.3,84,70,49,30.29,30.23,7,3,13,0.00
2013-4-6,53.4,40.9,28.4,35.4,31.4,25.3,92,71,42,30.32,30.17,8,3,17,0.00
2013-4-7,47.9,41.1,32.5,37.2,33.2,28.2,89,74,56,30.17,29.76,13,5,23,0.00
2013-4-8,50.0,43.1,36.9,36.9,34.1,32.2,84,71,55,29.76,29.43,14,6,23,0.00
2013-4-9,47.6,42.4,37.8,36.2,34.7,33.5,86,74,62,29.61,29.43,12,6,22,0.00
2013-4-10,54.5,44.4,38.9,44.7,40.0,34.3,94,85,65,29.61,29.41,8,2,15,0.05
2013-4-11,54.3,46.3,42.6,48.0,43.4,41.0,96,90,70,29.41,29.24,9,4,16,0.67
2013-4-12,54.7,46.4,39.5,43.8,40.4,36.1,94,80,57,29.68,29.31,10,4,16,0.00
2013-4-13,53.6,45.4,33.0,51.3,43.4,31.0,96,93,85,29.67,29.28,17,6,24,0.29
2013-4-14,57.4,51.3,48.1,50.0,47.2,45.3,96,86,72,29.48,29.26,25,15,37,0.20
2013-4-15,57.1,49.8,46.7,49.5,46.6,43.6,96,89,70,29.74,29.29,28,12,49,0.21
2013-4-16,54.1,48.9,41.2,45.1,42.3,38.4,92,78,59,29.89,29.28,29,15,45,0.05
2013-4-17,57.5,49.9,41.8,53.0,47.5,39.6,96,92,77,29.83,29.07,22,11,35,0.81
2013-4-18,51.5,46.2,40.9,45.5,42.4,38.2,94,86,75,30.20,29.28,22,12,37,0.26
2013-4-19,54.5,46.7,40.1,44.7,41.1,37.7,94,82,60,30.46,30.20,13,7,20,0.00
2013-4-20,54.9,48.6,41.3,46.7,43.5,39.3,94,83,67,30.46,30.12,16,10,28,0.00
2013-4-21,52.6,47.6,44.1,46.5,42.9,40.2,94,84,67,30.12,29.99,16,9,26,0.28
2013-4-22,55.4,50.3,45.6,51.5,47.6,42.2,96,90,78,29.99,29.82,16,10,27,0.02
2013-4-23,57.1,51.7,48.5,50.6,47.8,46.1,95,87,70,30.15,29.98,13,9,22,0.03
2013-4-24,52.7,49.1,42.6,51.6,46.6,41.0,97,91,79,30.27,30.03,16,6,28,0.23
2013-4-25,53.8,45.3,40.2,45.3,40.8,36.4,96,85,60,30.25,30.17,14,5,23,0.13
2013-4-26,50.7,43.4,38.9,41.8,37.8,34.6,94,81,60,30.25,30.18,17,7,29,0.18
2013-4-27,54.1,46.0,39.8,40.9,37.4,34.1,87,73,53,30.27,30.15,10,6,18,0.00
2013-4-28,53.8,47.5,41.9,46.8,41.7,35.6,95,81,62,30.15,29.95,15,9,31,0.03
2013-4-29,54.9,46.7,40.5,44.2,39.5,35.3,93,77,58,30.31,29.99,15,7,30,0.05
2013-4-30,53.2,46.4,38.6,44.4,39.7,35.4,90,78,63,30.38,30.30,12,5,20,0.03
2013-5-1,58.6,51.2,45.4,47.0,42.4,36.2,93,74,48,30.32,30.25,12,5,20,0.01
2013-5-2,56.4,50.0,44.3,50.3,46.0,38.8,93,86,78,30.31,30.11,16,8,26,0.00
2013-5-3,51.9,49.8,47.1,50.2,48.1,45.5,96,94,93,30.11,29.85,21,11,35,0.22
2013-5-4,54.0,48.6,40.9,50.4,45.4,39.3,96,89,73,29.98,29.84,21,10,33,0.05
2013-5-5,56.3,51.8,50.1,52.4,49.8,48.7,97,93,82,30.06,29.97,20,11,35,0.15
2013-5-6,62.0,53.5,49.8,55.2,50.2,47.4,96,89,73,30.04,29.97,12,5,18,0.03
2013-5-7,60.8,53.0,46.9,52.3,48.9,44.8,95,86,67,29.99,29.61,16,4,22,0.05
2013-5-8,52.7,49.4,44.7,51.3,47.6,42.1,96,93,89,29.60,29.27,25,11,39,0.90
2013-5-9,54.8,49.2,44.9,48.3,45.2,42.6,96,87,70,29.64,29.11,26,13,40,0.41
2013-5-10,52.3,48.8,45.4,48.8,44.2,39.5,94,85,63,29.75,29.64,20,12,31,0.02
2013-5-11,52.8,48.2,45.6,47.5,43.7,39.9,95,85,64,29.90,29.72,17,10,29,0.09
2013-5-12,55.1,50.1,43.3,51.1,46.7,39.2,96,88,70,29.98,29.85,20,12,29,0.06
2013-5-13,52.5,45.2,40.6,44.1,39.9,37.6,94,82,62,29.90,29.76,21,11,36,0.24
2013-5-14,54.8,45.4,37.4,46.0,40.4,34.6,93,83,64,29.76,29.43,17,8,31,0.06
2013-5-15,51.7,45.6,42.3,44.2,40.3,35.7,91,82,57,29.65,29.56,15,7,27,0.19
2013-5-16,53.1,46.1,41.7,47.4,43.1,39.6,95,90,74,29.64,29.44,10,3,15,0.47
2013-5-17,60.6,49.5,43.5,47.7,44.2,39.8,96,84,51,30.01,29.64,13,4,20,0.14
2013-5-18,51.2,47.8,45.1,48.4,45.4,42.8,95,91,84,30.01,29.76,13,6,21,0.04
2013-5-19,60.1,52.2,47.2,53.4,48.8,45.8,100,89,76,30.09,29.76,7,1,10,0.00
2013-5-20,55.0,51.7,49.3,50.3,48.6,46.6,94,89,81,30.25,30.08,12,5,20,0.00
2013-5-21,64.3,54.0,48.4,52.5,47.9,45.0,91,80,62,30.28,30.21,13,5,23,0.00
2013-5-22,59.8,52.0,45.5,47.8,43.2,39.2,91,73,56,30.34,30.28,10,5,18,0.00
2013-5-23,56.3,50.0,44.3,42.9,38.6,36.2,78,65,53,30.31,30.21,14,8,25,0.00
2013-5-24,56.9,50.0,42.0,42.6,39.7,36.3,90,68,55,30.24,30.17,14,6,23,0.00
2013-5-25,54.3,49.4,41.9,51.2,46.4,39.3,94,89,69,30.24,30.18,10,4,16,0.05
2013-5-26,59.5,52.3,48.7,52.6,49.2,46.4,95,89,74,30.18,29.68,17,8,31,0.12
2013-5-27,54.5,49.6,46.3,47.9,45.0,41.5,96,84,69,29.68,29.44,18,10,27,0.15
2013-5-28,58.6,50.8,44.7,50.1,45.9,42.6,94,84,67,29.75,29.50,12,6,20,0.07
2013-5-29,67.1,55.4,46.1,53.3,47.4,42.8,95,76,52,30.12,29.75,13,6,21,0.01
2013-5-30,66.1,57.0,47.3,52.6,48.0,42.2,91,73,54,30.19,30.12,8,4,15,0.00
2013-5-31,54.9,53.6,52.6,51.9,50.0,47.0,93,88,75,30.27,30.18,8,2,12,0.00
2013-6-1,60.0,54.7,48.0,50.2,47.5,45.1,92,77,62,30.43,30.35,14,8,20,0.00
2013-6-2,57.4,52.8,46.2,54.4,49.9,44.6,95,90,76,30.49,30.42,12,6,20,0.00
2013-6-3,68.5,59.0,51.0,57.8,53.3,49.7,97,83,61,30.50,30.43,8,2,12,0.00
2013-6-4,74.0,61.5,50.1,56.1,51.4,44.1,96,72,43,30.44,30.24,7,2,13,0.00
2013-6-5,71.4,58.0,42.9,56.0,49.1,40.3,95,74,53,30.25,30.08,7,2,13,0.00
2013-6-6,73.5,61.6,48.9,56.7,51.3,45.9,91,71,48,30.24,30.13,7,2,13,0.00
2013-6-7,75.4,62.8,47.9,57.5,51.8,45.4,94,70,43,30.28,30.23,8,3,13,0.00
2013-6-8,78.9,65.6,51.8,57.3,51.6,47.2,93,64,36,30.28,30.08,7,2,10,0.00
2013-6-9,77.7,62.7,47.9,58.2,51.6,44.5,93,69,43,30.08,29.86,10,2,15,0.00
2013-6-10,58.5,55.1,50.8,53.6,50.2,46.8,91,84,72,29.88,29.69,14,8,23,0.20
2013-6-11,62.1,55.3,50.6,59.5,52.6,48.7,96,91,72,29.70,29.61,12,4,20,0.50
2013-6-12,65.7,54.7,45.0,54.0,50.1,43.7,96,86,59,29.73,29.56,8,2,12,0.13
2013-6-13,59.8,54.4,50.3,51.6,49.0,45.4,94,83,63,29.88,29.59,18,8,27,0.09
2013-6-14,56.4,52.3,47.1,54.4,49.8,44.6,95,91,85,29.84,29.47,16,8,25,0.44
2013-6-15,61.8,53.1,45.6,54.1,48.6,42.8,93,85,67,29.73,29.51,18,8,25,0.08
2013-6-16,62.2,54.8,49.6,54.2,51.6,48.2,96,89,70,29.92,29.73,10,3,15,0.10
2013-6-17,67.8,57.9,52.5,57.3,53.6,50.9,96,86,65,30.04,29.92,6,3,12,0.02
2013-6-18,65.8,57.6,48.1,56.3,51.1,45.7,95,80,61,30.06,29.98,10,4,18,0.00
2013-6-19,62.5,55.3,46.9,53.9,49.8,44.7,94,82,69,30.09,30.01,13,5,20,0.00
2013-6-20,62.8,56.9,52.4,58.1,53.4,50.3,95,88,70,30.01,29.80,10,4,18,0.02
2013-6-21,58.5,54.7,51.0,54.4,50.4,46.6,95,86,67,29.91,29.51,15,7,25,0.17
2013-6-22,59.4,54.6,51.4,54.0,51.2,48.7,93,88,77,29.73,29.40,21,12,30,0.10
2013-6-23,60.2,54.1,49.7,51.9,48.0,44.4,92,80,66,30.26,29.73,14,8,27,0.03
2013-6-24,62.6,55.1,46.6,51.3,47.4,43.4,91,76,55,30.30,30.26,9,5,15,0.00
2013-6-25,64.7,56.8,51.3,57.8,52.3,48.5,93,85,74,30.49,30.29,10,2,18,0.03
2013-6-26,64.3,56.7,46.2,54.4,49.7,43.9,96,78,59,30.55,30.49,10,3,16,0.00
2013-6-27,66.6,57.8,51.3,60.4,54.9,48.0,96,90,79,30.53,30.32,15,8,24,0.00
2013-6-28,61.9,56.6,52.7,59.3,54.4,49.8,96,92,82,30.33,30.18,17,9,28,0.00
2013-6-29,66.6,58.2,52.7,60.2,55.1,49.6,96,90,76,30.28,30.21,18,10,27,0.01
2013-6-30,58.2,55.9,52.1,56.3,52.1,45.7,96,87,68,30.23,30.03,18,12,31,0.05
2013-7-1,62.4,55.1,51.2,50.6,48.9,45.8,92,80,58,30.04,29.86,14,7,21,0.06
2013-7-2,59.2,54.3,50.7,58.1,52.7,49.1,97,94,91,29.86,29.48,17,9,26,0.25
2013-7-3,58.3,57.9,57.6,57.5,57.1,56.5,97,97,96,29.83,29.80,13,10,22,0.05
2013-7-4,59.1,56.8,53.4,57.6,52.7,49.8,97,87,74,30.25,29.78,18,11,27,0.10
2013-7-5,63.5,57.5,51.8,56.3,52.9,47.8,92,85,73,30.38,30.25,12,7,18,0.00
2013-7-6,61.9,57.2,50.7,58.1,54.6,47.5,96,91,84,30.48,30.32,13,6,24,0.02
2013-7-7,75.6,65.7,57.6,67.2,61.7,56.6,97,87,72,30.58,30.48,6,2,9,0.01
2013-7-8,85.6,71.1,59.4,68.9,63.3,58.0,97,79,53,30.58,30.47,6,2,12,0.00
2013-7-9,86.5,73.9,61.5,71.3,64.7,58.6,93,74,53,30.48,30.35,7,3,12,0.00
2013-7-10,85.5,71.4,59.0,68.4,62.4,52.8,96,75,49,30.38,30.28,7,3,12,0.00
2013-7-11,86.2,72.0,58.9,68.6,62.4,52.4,94,74,49,30.31,30.23,6,2,8,0.00
2013-7-12,74.5,67.1,58.7,67.6,62.4,55.7,96,85,75,30.31,30.25,10,4,17,0.00
2013-7-13,76.6,64.8,57.1,64.7,58.9,53.2,95,82,62,30.37,30.30,7,3,12,0.00
2013-7-14,70.6,59.9,51.9,62.0,54.6,49.9,95,84,54,30.35,30.26,12,4,20,0.00
2013-7-15,66.3,61.4,56.2,58.0,55.5,52.9,92,82,70,30.28,30.26,9,4,14,0.00
2013-7-16,70.8,64.8,60.2,62.2,59.2,55.2,93,83,58,30.28,30.23,13,6,20,0.00
2013-7-17,73.5,64.7,56.7,63.3,59.4,55.0,96,84,68,30.36,30.28,9,4,15,0.00
2013-7-18,82.7,69.0,59.7,66.5,62.1,58.0,96,81,54,30.39,30.31,6,2,12,0.00
2013-7-19,87.0,72.8,58.4,68.3,62.0,56.8,96,72,38,30.34,30.19,7,3,12,0.00
2013-7-20,87.5,73.2,58.2,67.4,60.8,56.0,95,68,40,30.22,30.11,8,2,17,0.00
2013-7-21,76.4,67.2,58.5,64.8,60.7,55.7,95,80,63,30.14,29.98,7,2,12,0.00
2013-7-22,74.8,65.9,60.6,65.1,60.8,57.0,93,84,70,30.00,29.86,9,3,13,0.00
2013-7-23,72.5,63.8,58.9,63.3,60.4,56.4,96,89,67,29.86,29.76,10,3,18,0.25
2013-7-24,66.7,61.6,57.6,62.5,59.3,55.8,96,92,83,29.78,29.69,14,5,24,0.30
2013-7-25,70.3,61.1,51.8,61.5,56.6,50.3,97,86,64,29.81,29.76,9,2,15,0.11
2013-7-26,76.2,63.3,51.7,61.9,56.4,50.0,97,80,54,29.82,29.77,9,2,17,0.00
2013-7-27,74.8,63.1,57.0,62.2,58.5,55.0,95,86,62,29.78,29.59,14,3,21,0.32
2013-7-28,72.1,61.8,51.7,61.3,57.0,50.0,97,85,64,29.59,29.50,9,3,23,0.01
2013-7-29,67.7,60.8,55.6,60.9,55.8,51.8,96,85,60,29.81,29.58,15,6,25,0.24
2013-7-30,66.6,59.7,55.1,58.7,54.4,51.9,96,83,67,29.88,29.75,17,7,27,0.28
2013-7-31,65.9,59.2,52.8,64.1,57.2,50.6,97,93,88,29.88,29.60,14,4,24,0.57
2013-8-1,66.7,64.0,61.2,65.1,62.1,57.7,97,94,88,29.61,29.38,13,7,23,0.83
2013-8-2,64.8,60.2,55.3,58.7,55.9,53.0,93,86,77,29.65,29.35,21,13,35,0.13
2013-8-3,64.7,57.9,53.6,58.4,53.6,51.2,93,86,67,29.87,29.64,15,7,25,0.20
2013-8-4,69.1,59.4,52.7,58.2,55.0,50.9,96,86,59,29.89,29.86,9,4,14,0.02
2013-8-5,67.3,60.9,55.6,53.8,52.5,50.6,90,74,58,29.99,29.91,10,5,17,0.02
2013-8-6,65.7,58.3,52.7,56.2,53.7,50.8,95,85,65,29.99,29.87,10,3,17,0.09
2013-8-7,75.0,60.9,53.2,61.1,55.3,51.8,97,83,49,30.06,29.90,6,1,9,0.01
2013-8-8,68.4,59.6,53.2,60.7,56.5,50.9,96,90,73,30.05,29.89,13,6,23,0.09
2013-8-9,63.6,58.5,54.7,54.8,51.9,49.7,91,79,64,30.23,29.99,10,6,18,0.00
2013-8-10,64.0,58.4,52.7,57.5,53.2,50.2,93,83,65,30.22,30.11,13,5,23,0.02
2013-8-11,61.8,56.5,53.2,55.2,51.7,47.8,93,84,71,30.11,30.07,13,6,20,0.02
2013-8-12,66.2,58.3,52.7,53.8,50.3,44.9,92,76,49,30.18,30.07,12,6,22,0.01
2013-8-13,64.8,59.5,56.0,57.9,55.3,53.3,95,86,70,30.21,30.10,10,5,17,0.00
2013-8-14,65.0,61.4,58.7,62.0,59.6,55.5,96,94,88,30.10,29.96,13,7,20,0.06
2013-8-15,67.3,61.6,52.8,64.9,59.6,50.7,96,93,83,29.96,29.78,14,8,23,0.43
2013-8-16,66.3,59.8,52.6,59.8,56.0,50.6,95,88,75,29.94,29.83,13,6,21,0.05
2013-8-17,65.8,60.6,53.6,62.1,57.3,51.0,96,89,74,29.83,29.54,17,10,28,0.19
2013-8-18,62.3,56.6,51.2,54.4,51.3,48.7,93,83,66,29.94,29.65,16,7,25,0.02
2013-8-19,65.2,58.7,50.5,57.1,53.9,48.3,94,84,66,30.26,29.94,15,7,24,0.03
2013-8-20,66.1,61.1,58.6,60.8,57.7,55.7,96,89,73,30.27,30.08,14,8,23,0.20
2013-8-21,63.8,59.9,56.0,61.0,57.9,54.5,96,93,86,30.14,30.05,17,9,28,0.03
2013-8-22,71.9,59.4,54.4,61.6,56.6,53.0,97,91,67,30.13,29.88,8,3,13,0.01
2013-8-23,65.3,59.1,51.5,60.1,55.1,46.9,96,87,69,30.02,29.81,12,6,21,0.16
2013-8-24,60.5,55.5,51.7,56.6,52.2,48.1,94,89,81,30.05,29.97,10,4,16,0.06
2013-8-25,65.2,61.0,55.9,58.1,55.9,53.8,95,83,75,30.23,30.13,5,2,10,0.01
2013-8-26,62.0,57.9,54.6,59.3,55.6,52.3,95,92,88,30.23,30.15,9,2,15,0.00
2013-8-27,65.7,60.1,53.6,62.0,56.8,50.5,96,89,74,30.29,30.14,8,4,14,0.02
2013-8-28,65.1,57.9,51.3,58.6,53.6,48.4,95,86,70,30.29,30.14,12,4,21,0.00
2013-8-29,65.2,60.2,57.7,60.3,58.0,56.2,96,93,81,30.14,30.09,13,7,18,0.02
2013-8-30,63.2,58.6,48.7,60.3,55.2,43.9,96,89,68,30.30,29.98,18,9,28,0.02
2013-8-31,62.9,55.1,51.0,52.8,48.2,45.1,87,78,63,30.51,30.30,12,5,20,0.00
2013-9-1,61.6,57.5,52.0,55.0,51.1,47.9,91,79,71,30.51,30.38,17,9,31,0.00
2013-9-2,63.2,61.1,59.7,61.1,59.6,58.0,97,95,92,30.36,30.32,16,9,23,0.02
2013-9-3,64.7,59.2,53.1,58.0,54.5,50.5,94,85,70,30.35,30.18,12,6,20,0.00
2013-9-4,68.4,57.8,51.2,59.8,54.1,49.2,95,88,68,30.17,29.93,14,6,24,0.12
2013-9-5,63.2,52.6,47.1,50.0,46.6,43.0,96,81,55,30.01,29.96,12,3,15,0.01
2013-9-6,59.9,51.5,43.2,48.2,45.2,40.4,93,80,58,30.01,29.94,13,4,20,0.00
2013-9-7,51.5,49.5,48.4,48.9,45.9,43.2,93,87,75,30.01,29.93,9,5,20,0.12
2013-9-8,58.8,52.8,45.9,50.5,47.2,42.9,94,82,64,29.99,29.93,10,4,17,0.01
2013-9-9,63.9,54.4,47.6,57.0,51.0,45.8,98,89,75,30.34,29.99,9,2,14,0.02
2013-9-10,61.7,55.2,50.1,54.2,50.4,47.5,92,84,71,30.42,30.35,7,3,12,0.00
2013-9-11,65.8,59.3,53.6,62.1,57.1,51.0,96,92,86,30.41,30.18,13,6,20,0.16
2013-9-12,63.7,58.9,49.0,62.5,57.4,46.8,97,95,87,30.18,30.03,15,6,24,0.05
2013-9-13,61.4,52.5,47.1,50.9,47.8,43.8,94,85,59,30.17,30.12,6,0,8,0.01
2013-9-14,62.4,53.3,46.2,52.4,48.1,44.5,95,83,63,30.17,30.01,13,3,21,0.00
2013-9-15,60.3,55.0,46.4,59.2,50.5,41.8,98,85,58,30.01,29.57,22,13,37,0.16
2013-9-16,56.0,49.2,44.4,47.3,43.5,41.1,91,81,62,29.76,29.65,17,9,30,0.13
2013-9-17,61.1,53.7,49.1,58.8,50.7,42.4,97,90,74,29.72,29.41,20,7,31,0.32
2013-9-18,59.1,52.0,47.3,49.6,46.7,43.9,95,83,62,29.91,29.55,13,4,23,0.04
2013-9-19,60.5,55.7,50.9,58.4,50.4,46.2,96,83,67,29.99,29.59,17,10,29,0.19
2013-9-20,64.0,56.9,51.3,55.3,51.2,47.0,92,82,72,30.05,29.98,13,4,21,0.00
2013-9-21,61.5,60.2,57.7,60.5,59.2,56.6,97,96,94,30.21,30.06,14,9,23,0.01
2013-9-22,72.5,63.8,59.2,62.8,59.5,57.1,97,87,68,30.28,30.20,13,6,22,0.00
2013-9-23,76.6,63.6,55.3,66.6,59.3,53.3,96,87,67,30.20,30.01,12,3,18,0.00
2013-9-24,65.2,61.2,57.8,61.3,58.1,55.4,95,89,83,30.01,29.90,7,1,14,0.01
2013-9-25,71.1,61.8,57.3,62.8,58.6,55.9,97,90,71,29.91,29.83,3,1,8,0.00
2013-9-26,68.1,59.9,56.7,62.4,57.7,54.8,97,93,79,29.93,29.88,5,1,8,0.01
2013-9-27,68.0,59.3,51.7,62.1,56.4,50.3,97,91,79,29.94,29.83,5,1,12,0.00
2013-9-28,66.9,59.3,53.6,60.1,56.2,52.1,95,90,78,29.82,29.68,7,2,12,0.01
2013-9-29,62.1,58.2,56.2,56.9,54.5,52.4,93,87,81,29.70,29.64,6,2,12,0.00
2013-9-30,61.6,58.1,56.0,58.2,55.6,51.7,96,92,85,29.64,29.55,8,3,20,0.09
2013-10-1,68.2,61.1,58.6,61.8,58.8,57.1,96,92,77,29.56,29.51,8,3,16,0.05
2013-10-2,64.2,60.2,59.2,62.4,58.3,57.0,97,93,92,29.51,29.45,10,5,16,0.15
2013-10-3,65.5,60.8,55.2,61.9,57.8,53.4,95,90,79,29.56,29.49,9,4,14,0.02
2013-10-4,63.2,56.6,53.4,57.8,53.5,49.7,96,90,76,29.94,29.56,10,4,16,0.01
2013-10-5,63.7,58.8,52.8,58.7,55.1,49.9,95,88,75,30.11,29.94,15,8,27,0.03
2013-10-6,62.1,60.5,58.7,61.2,59.4,56.3,98,96,89,30.12,30.07,14,9,23,0.20
2013-10-7,64.4,60.6,58.3,60.8,58.8,56.6,97,94,88,30.11,30.00,17,10,30,0.09
2013-10-8,60.2,56.3,53.1,57.1,53.6,50.2,95,91,79,30.35,30.11,10,4,18,0.01
2013-10-9,57.0,51.1,45.1,52.6,44.7,39.6,93,79,65,30.38,30.28,12,6,21,0.01
2013-10-10,54.6,46.4,41.2,45.5,40.9,37.9,90,81,64,30.46,30.38,12,4,16,0.00
2013-10-11,57.4,45.6,37.5,48.5,41.0,35.2,95,84,69,30.45,30.39,7,2,15,0.00
2013-10-12,51.8,48.5,45.4,48.3,46.1,44.1,95,91,86,30.34,30.21,6,3,12,0.00
2013-10-13,56.9,50.1,44.1,50.7,47.7,42.1,96,92,77,30.21,30.02,5,1,9,0.02
2013-10-14,58.3,47.6,39.0,51.6,43.9,37.2,98,88,65,30.03,29.90,6,1,10,0.01
2013-10-15,59.5,46.7,36.1,52.0,43.7,34.5,97,90,72,29.90,29.78,7,2,13,0.01
2013-10-16,59.2,53.5,50.0,55.3,50.8,47.2,97,91,84,29.78,29.54,15,6,26,0.36
2013-10-17,65.4,56.8,52.0,57.9,54.1,50.3,97,91,75,29.83,29.71,12,5,16,0.03
2013-10-18,58.8,56.3,54.5,56.8,54.5,52.3,95,94,90,29.80,29.42,17,6,28,0.11
2013-10-19,61.5,55.9,49.6,57.2,53.7,47.3,97,92,78,29.42,29.33,12,4,17,0.07
2013-10-20,58.4,52.5,49.2,54.9,50.8,47.2,97,94,84,29.51,29.22,9,3,15,0.15
2013-10-21,57.3,52.5,47.9,56.7,51.6,46.8,100,97,95,29.51,29.13,9,2,17,0.24
2013-10-22,60.8,55.7,52.5,56.9,54.1,51.1,99,94,83,29.14,29.01,12,6,18,0.10
2013-10-23,54.6,48.9,40.6,51.2,44.3,38.2,95,85,66,29.73,29.06,13,6,22,0.03
2013-10-24,58.3,49.4,39.1,55.5,47.9,37.5,97,95,89,29.78,29.51,7,2,15,0.19
2013-10-25,61.2,55.3,49.7,56.7,53.4,47.3,97,93,80,29.53,29.29,13,5,20,0.24
2013-10-26,55.6,51.7,49.0,51.2,48.7,46.8,96,90,78,29.53,29.09,16,9,26,0.27
2013-10-27,55.2,51.8,48.8,51.4,48.2,45.4,94,87,80,29.13,28.95,22,13,41,0.39
2013-10-28,53.8,47.7,45.1,47.3,44.4,40.9,94,88,73,29.68,29.04,16,8,26,0.09
2013-10-29,53.9,46.4,41.0,45.4,41.5,37.7,92,83,65,30.00,29.68,12,5,20,0.03
2013-10-30,55.5,49.5,44.5,53.3,46.0,41.6,95,88,73,29.97,29.63,20,8,30,0.09
2013-10-31,54.2,49.9,46.1,49.8,45.6,41.2,91,85,73,29.90,29.74,20,11,35,0.14
2013-11-1,53.9,46.3,36.5,46.7,42.1,34.1,95,86,67,29.77,29.61,13,4,16,0.05
2013-11-2,50.7,45.2,42.3,46.4,41.8,37.2,95,88,77,29.46,28.89,17,9,33,0.28
2013-11-3,53.5,45.2,38.6,45.4,41.2,36.9,94,86,67,29.54,29.31,12,4,20,0.04
2013-11-4,50.4,42.2,32.7,48.5,39.0,30.9,97,89,72,29.48,29.25,12,4,21,0.04
2013-11-5,49.1,46.3,43.8,47.4,43.5,41.5,97,90,81,29.44,29.22,14,6,24,0.18
2013-11-6,47.4,44.6,39.8,46.0,42.8,37.9,95,93,89,29.57,29.39,10,4,18,0.15
2013-11-7,53.2,46.4,39.6,45.8,41.7,36.8,93,84,70,29.57,29.51,23,11,35,0.14
2013-11-8,43.1,41.4,39.5,39.5,37.6,36.0,90,86,84,29.65,29.63,10,6,25,0.09
2013-11-9,48.2,42.4,36.4,42.9,39.5,34.3,96,89,78,29.81,29.59,13,4,21,0.09
2013-11-10,55.2,45.1,36.5,54.4,43.4,34.4,100,94,85,30.05,29.81,13,5,21,0.35
2013-11-11,55.9,52.6,46.8,55.1,50.3,43.8,97,92,82,30.21,29.84,14,7,24,0.07
2013-11-12,52.9,45.5,40.3,44.8,41.4,37.9,92,86,67,30.54,30.20,12,5,18,0.01
2013-11-13,52.2,48.4,42.9,50.4,44.2,38.7,95,86,75,30.54,30.12,22,10,35,0.34
2013-11-14,53.1,47.1,44.4,44.0,41.0,38.0,89,80,67,30.65,30.29,14,6,27,0.03
2013-11-15,52.6,49.7,46.1,47.8,45.6,41.5,92,86,80,30.64,30.50,10,3,15,0.00
2013-11-16,54.1,51.8,48.3,51.8,49.1,46.9,96,91,84,30.50,30.39,14,6,25,0.09
2013-11-17,53.6,48.0,44.9,52.9,47.1,44.1,98,97,95,30.40,30.03,12,3,21,0.46
2013-11-18,47.6,41.3,34.3,43.7,39.2,32.2,100,92,82,30.08,29.96,12,4,21,0.08
2013-11-19,46.7,40.0,33.8,43.5,35.8,30.2,93,85,68,30.23,30.01,16,5,25,0.03
2013-11-20,47.3,44.6,39.7,44.1,40.1,34.3,92,84,70,30.02,29.85,16,10,31,0.09
2013-11-21,44.2,39.5,35.2,37.7,35.2,32.1,93,85,70,30.20,30.01,12,5,20,0.02
2013-11-22,44.5,37.4,30.0,38.4,34.3,28.5,95,89,75,30.35,30.19,5,1,8,0.00
2013-11-23,47.1,40.3,29.7,45.1,38.9,28.1,97,95,91,30.51,30.35,5,1,8,0.02
2013-11-24,47.2,44.4,42.7,46.3,43.4,41.6,97,96,95,30.69,30.51,3,0,5,0.00
2013-11-25,47.7,44.2,41.3,44.4,41.8,40.1,97,92,83,30.81,30.69,7,2,9,0.00
2013-11-26,50.3,45.8,42.3,45.6,43.0,40.2,95,90,80,30.80,30.71,9,4,14,0.00
2013-11-27,51.7,48.5,46.0,47.1,45.1,42.6,94,88,81,30.72,30.64,6,3,10,0.00
2013-11-28,52.2,49.1,46.8,49.3,46.1,44.2,93,89,83,30.67,30.62,5,1,8,0.00
2013-11-29,47.0,45.9,44.4,41.5,40.7,39.5,86,82,75,30.54,30.52,8,5,15,0.00
2013-11-30,51.5,45.6,41.5,44.9,42.2,38.8,93,88,77,30.58,30.52,7,2,10,0.00
2013-12-1,51.1,46.7,43.3,46.3,43.4,40.7,95,88,80,30.62,30.55,6,1,10,0.00
2013-12-2,48.9,46.2,43.9,44.8,42.8,40.0,92,88,81,30.57,30.39,10,5,18,0.00
2013-12-3,51.4,47.8,40.2,49.9,46.0,38.3,96,94,88,30.40,30.25,12,7,21,0.38
2013-12-4,47.6,42.2,38.6,41.7,37.9,34.6,93,85,75,30.56,30.40,18,6,26,0.01
2013-12-5,49.6,47.1,41.6,47.7,42.6,38.7,94,84,76,30.45,30.24,25,12,43,0.07
2013-12-6,49.9,45.9,40.6,46.7,43.7,38.4,95,92,88,30.43,30.35,13,6,21,0.05
2013-12-7,50.9,47.9,44.1,48.9,45.3,40.7,94,91,87,30.35,30.12,13,7,20,0.05
2013-12-8,53.0,52.1,50.9,51.1,50.3,48.9,95,94,93,30.14,30.08,20,12,32,0.03
2013-12-9,54.4,50.7,47.8,50.8,47.7,43.7,94,89,81,30.17,30.05,14,9,23,0.00
2013-12-10,55.7,52.6,48.8,52.7,49.7,46.3,92,90,87,30.11,30.02,15,9,26,0.00
2013-12-11,53.9,51.3,49.6,51.3,47.9,46.3,92,88,84,30.11,29.89,16,10,26,0.00
2013-12-12,54.7,54.4,54.1,52.5,52.4,52.0,94,93,91,29.73,29.71,12,9,24,0.09
2013-12-13,54.8,47.9,41.7,52.7,43.9,36.3,95,86,75,29.99,29.61,20,11,32,0.11
2013-12-14,53.3,48.2,43.8,51.8,45.7,39.0,96,91,76,29.98,29.43,29,15,43,0.91
2013-12-15,48.7,45.6,42.3,46.2,42.4,37.2,95,88,77,29.88,29.54,18,10,31,0.34
2013-12-16,48.4,42.4,36.4,44.7,38.1,33.7,93,85,74,30.06,29.57,17,7,31,0.15
2013-12-17,47.0,43.4,39.1,45.5,39.5,35.7,96,86,76,30.09,29.52,21,12,36,0.09
2013-12-18,51.3,47.2,38.6,49.9,44.3,33.2,97,90,74,29.51,28.72,37,14,61,0.40
2013-12-19,41.2,38.5,34.6,38.1,35.0,32.5,94,87,76,29.72,29.12,18,9,28,0.16
2013-12-20,52.0,46.3,39.8,50.0,43.4,36.8,96,90,80,29.81,29.42,26,14,40,0.49
2013-12-21,49.4,45.0,39.2,44.2,40.6,35.8,92,84,75,29.56,29.38,26,12,36,0.28
2013-12-22,43.9,38.9,35.1,38.8,35.5,32.5,94,87,74,29.65,29.42,21,10,36,0.43
2013-12-23,50.8,44.5,36.4,49.3,41.9,33.6,97,91,78,29.58,28.34,28,13,47,0.43
2013-12-24,42.5,39.6,35.0,38.9,34.9,28.4,93,83,60,28.73,28.31,29,14,47,0.29
2013-12-25,46.9,39.7,35.7,40.7,35.9,32.2,95,86,76,29.13,28.73,12,4,18,0.12
2013-12-26,48.5,40.8,36.2,46.8,38.6,34.2,96,92,84,29.35,28.23,30,11,53,0.30
2013-12-27,47.8,43.4,38.3,45.2,40.6,35.9,94,90,82,29.08,28.18,33,17,55,0.45
2013-12-28,46.1,39.3,35.6,41.2,36.3,33.6,94,89,78,29.77,29.09,12,6,23,0.02
2013-12-29,48.8,42.0,35.3,47.5,39.8,32.4,96,92,85,29.83,29.41,18,8,28,0.53
2013-12-30,47.4,43.8,39.6,45.2,41.2,37.7,96,91,77,29.59,29.21,16,7,27,0.21
2013-12-31,47.0,42.0,37.8,44.8,39.2,36.1,95,90,77,29.24,29.06,18,10,32,0.36
2014-1-1,42.4,41.1,39.3,42.3,39.6,37.4,100,94,90,29.16,28.74,12,5,20,0.19
2014-1-2,47.7,44.4,40.8,44.8,41.4,38.1,95,89,80,29.12,28.63,28,10,38,0.14